Location: Bord�res
(43.2000°N, 0.2167°W)
Time: 14:14:30
(UTC+00:00)

Resurs 01 Rocket - Pass Details

Date: 03 March 2021
Orbit: 635 x 643 km, 98.0° (Epoch: 20 April)

Event Time Altitude Azimuth Distance (km) Brightness Sun altitude
Exits shadow 19:12:38 11° 42° (NE) 1,978 3.8 -15.4°
Drops below altitude 10° 19:13:00 10° 38° (NE) 2,030 3.9 -15.4°
Sets 19:16:31 0° 8° (N) 2,946 5.0 -16.1°
